Location: Unspecified
(0.0000°N, 0.0000°E)
Time: 07:09:05
(UTC+00:00)

A-11 Canister half - Pass Details

Date: 28 November 2019
Orbit: 1526 x 1683 km, 47.3° (Epoch: 11 December)

Event Time Altitude Azimuth Distance (km) Brightness Sun altitude
Rises 17:48:53 0° 323° (NW) 4,737 11.8 -0.2°
Reaches altitude 10° 17:51:59 10° 325° (NW) 3,736 11.2 -0.9°
Maximum altitude 18:01:24 78° 51° (NE) 1,564 9.0 -3.1°
Drops below altitude 10° 18:10:41 10° 136° (SE) 3,691 10.8 -5.3°
Sets 18:13:43 0° 137° (SE) 4,677 11.3 -6.0°
